Regional Weather Roundup
Issued by NWS

Home | Current Version | Previous Version | Text Only | Print | Product List | Glossary Off
Versions: 1 2 3 4 5 6 7 8 9 10 11 12 13 14 15 16 17 18 19 20 21 22 23 24 25 26 27

000
ASUS43 KDMX 230607
RWRIA

WEATHER ROUNDUP FOR IOWA
NATIONAL WEATHER SERVICE DES MOINES IA
100 AM CDT THU OCT 23 2014

NOTE: "FAIR" INDICATES FEW OR NO CLOUDS BELOW 12,000 FEET WITH NO
SIGNIFICANT WEATHER AND/OR OBSTRUCTIONS TO VISIBILITY.

* - THESE STATIONS ARE NOT NWS STATIONS...THUS NOT UNDER NWS
QUALITY CONTROL.  THEY ALSO DO NOT REPORT WEATHER SUCH
AS PRECIPITATION OR FOG.

IAZ001>003-012>014-020>022-031>034-043>046-230700-
   NORTHWEST IOWA

CITY           SKY/WX    TMP DP  RH WIND       PRES   REMARKS
CARROLL *      CLOUDY    55  54  94 S9        30.05F
CHEROKEE *     LGT RAIN  58  58 100 S6        30.01F
DENISON *      RAIN      57  57 100 S12G18    30.01F
LE MARS *      CLOUDY    59  59 100 CALM      30.02F
ORANGE CITY *  CLOUDY    57  55  94 W3        30.02S FOG
SHELDON *      CLOUDY    57  57 100 W6G12     30.01S FOG
SIOUX CITY     LGT RAIN  59  58  96 NW5       30.02S
6HR MIN TEMP:  59; 6HR MAX TEMP:  61; 6HR PCP:  0.16;

SPENCER        LGT RAIN  58  56  93 S7        30.02S
6HR MIN TEMP:  58; 6HR MAX TEMP:  64; 6HR PCP:  0.26;

STORM LAKE *   MOCLDY    55  55 100 S12       30.02F
$$

IAZ055>058-069>071-079>083-090>094-230700-
   SOUTHWEST IOWA

CITY           SKY/WX    TMP DP  RH WIND       PRES   REMARKS
ATLANTIC *     CLOUDY    57  54  88 S8        30.06F
AUDUBON *      CLOUDY    55  50  82 S8        30.06F
CLARINDA *     LGT RAIN  57  57 100 S6        30.09F
COUNCIL BLFS * CLOUDY    61  61 100 S9        30.03F FOG
CRESTON *      CLOUDY    55  50  82 SW8       30.13R
HARLAN  *      CLOUDY    57  57 100 S10       30.08F FOG
LAMONI         MOCLDY    56  44  64 S9G17     30.10F
6HR MIN TEMP:  55; 6HR MAX TEMP:  60;

RED OAK *      LGT RAIN  59  57  94 S6        30.07S
SHENANDOAH *   CLOUDY    61  59  94 S8        30.07S
$$

IAZ047>049-059>061-072>074-084-230700-
   CENTRAL IOWA

CITY           SKY/WX    TMP DP  RH WIND       PRES   REMARKS
AMES           TSTM      52  48  86 SE6       30.10F FOG
6HR MIN TEMP:  52; 6HR MAX TEMP:  58; 6HR PCP:  0.12;

ANKENY *       CLOUDY    55  46  71 CALM      30.11F
CHARITON *     CLOUDY    54  43  66 S14       30.10F
DES MOINES     CLOUDY    56  45  66 CALM      30.12R
6HR MIN TEMP:  56; 6HR MAX TEMP:  62;

GRINNELL*      MOCLDY    51  41  66 SE13      30.11F
KNOXVILLE *    CLOUDY    54  41  62 S10       30.09S
MARSHALLTOWN   CLOUDY    53  42  66 SW8       30.12R
6HR MIN TEMP:  52; 6HR MAX TEMP:  58;

PELLA *        MOCLDY    53  42  67 S9        30.11F
PERRY *        LGT RAIN  54  54 100 S7        30.08F
$$

IAZ004>006-015-016-023>025-035-036-230700-
   NORTH CENTRAL IOWA

CITY           SKY/WX    TMP DP  RH WIND       PRES   REMARKS
ALGONA *       MOCLDY    54  52  94 S10       30.04F
CLARION *      CLOUDY    52  50  93 S13       30.06F
ESTHERVILLE    CLOUDY    54  53  97 S14       30.02F
6HR MIN TEMP:  54; 6HR MAX TEMP:  59; 6HR PCP:  0.01;

FORT DODGE *   CLOUDY    55  48  76 S7        30.05F
MASON CITY     LGT RAIN  52  44  74 S10       30.08F
6HR MIN TEMP:  52; 6HR MAX TEMP:  57; 6HR PCP: TRACE;

FOREST CITY *  CLOUDY    52  46  82 S8        30.05F
IOWA FALLS *   LGT RAIN  54  43  66 S13       30.10F
$$

IAZ007>011-017>019-026>030-037>042-050>054-066-230700-
   NORTHEAST IOWA

CITY           SKY/WX    TMP DP  RH WIND       PRES   REMARKS
CEDAR RAPIDS   PTCLDY    49  40  71 S13       30.14F
6HR MIN TEMP:  49; 6HR MAX TEMP:  53;

CHARLES CITY * CLOUDY    54  39  58 S12       30.11F
CLINTON *      PTCLDY    45  34  65 S7        30.22S
DECORAH *      CLOUDY    50  41  71 SE7       30.12R
DUBUQUE        MOCLDY    44  37  76 S13       30.16F
6HR MIN TEMP:  40; 6HR MAX TEMP:  47;

MONTICELLO *   CLEAR     45  37  76 SE6       30.16F
OELWEIN *      CLEAR     50  39  66 SE14      30.12F
WATERLOO       CLOUDY    52  40  63 SW8       30.13R
6HR MIN TEMP:  52; 6HR MAX TEMP:  57;

$$

IAZ064-065-067-068-078-230700-
   EAST CENTRAL IOWA

CITY           SKY/WX    TMP DP  RH WIND       PRES   REMARKS
DAVENPORT      PTCLDY    45  35  68 S8        30.19F
6HR MIN TEMP:  43; 6HR MAX TEMP:  51;

IOWA CITY      PTCLDY    43  39  86 SE6       30.18F
6HR MIN TEMP:  43; 6HR MAX TEMP:  52;

MT. PLEASANT * CLEAR     44  38  82 SE6       30.18S
MUSCATINE *    CLEAR     39  36  87 CALM      30.19S
QUAD CITIES    PTCLDY    44  35  70 SE7       30.19F
6HR MIN TEMP:  39; 6HR MAX TEMP:  48;

$$

IAZ062-063-075>077-085>089-095>099-230700-
   SOUTHEAST IOWA

CITY           SKY/WX    TMP DP  RH WIND       PRES   REMARKS
BURLINGTON     CLEAR     47  39  74 S7        30.18F
6HR MIN TEMP:  47; 6HR MAX TEMP:  51;

FAIRFIELD *    PTCLDY    48  41  76 SE12      30.15F
FORT MADISON * CLEAR     48  43  81 S5        30.19S
KEOKUK *       CLEAR     48  41  76 SE7       30.18S
OSKALOOSA *      N/A     50  41  71 S10       30.13F
CENTERVILLE *  CLEAR     50  43  76 SE7       30.14F
OTTUMWA        PTCLDY    51  40  65 S13       30.13F
6HR MIN TEMP:  50; 6HR MAX TEMP:  53;

WASHINGTON *   CLEAR     45  41  87 SE8       30.16F
$$

ABBREVIATIONS USED IN REMARKS
   TC - TEMPERATURES IN CELSIUS
  WCI - WIND CHILL INDEX
   HX - HEAT INDEX
  VSB - VISIBILITY
$$




USA.gov is the U.S. government's official web portal to all federal, state and local government web resources and services.